FW3182 Weather Reports


Display with metric or nautical units.
time (UTC)temp
F
wind
direction
speed
MPH
gust
MPH
rain 1hr
in
rain 24hr
in
rain mn
in
humidity
%
barometer
mb
20260902194703 98 228 2.0 8.0 0.00 0.00 0.00 41 1012.3
20260902194203 99 194 5.0 9.0 0.00 0.00 0.00 40 1012.3
20260902193704 98 184 1.0 2.0 0.00 0.00 0.00 42 1012.4
20260902193204 98 221 2.0 6.0 0.00 0.00 0.00 41 1012.5
20260902192204 99 82 1.0 3.0 0.00 0.00 0.00 42 1012.7
20260902191704 98 110 1.0 5.0 0.00 0.00 0.00 43 1012.8
20260902191204 97 169 3.0 12.0 0.00 0.00 0.00 44 1012.8
20260902190203 98 221 1.0 3.0 0.00 0.00 0.00 43 1012.8
20260902185704 98 231 3.0 6.0 0.00 0.00 0.00 44 1012.9
20260902185205 97 160 0.0 3.0 0.00 0.00 0.00 46 1013.0
20260902184704 96 67 1.0 3.0 0.00 0.00 0.00 45 1013.1
20260902184204 96 140 2.0 3.0 0.00 0.00 0.00 46 1013.2
20260902183704 96 279 1.0 3.0 0.00 0.00 0.00 47 1013.2
20260902183204 96 197 0.0 1.0 0.00 0.00 0.00 46 1013.3
20260902182703 96 162 2.0 6.0 0.00 0.00 0.00 46 1013.3
20260902182204 96 144 1.0 6.0 0.00 0.00 0.00 46 1013.5
20260902181704 96 37 0.0 3.0 0.00 0.00 0.00 47 1013.5
20260902181203 96 58 0.0 2.0 0.00 0.00 0.00 48 1013.5
20260902180704 96 211 0.0 3.0 0.00 0.00 0.00 46 1013.7
20260902180203 97 200 1.0 7.0 0.00 0.00 0.00 45 1013.7
20260902175703 97 67 1.0 3.0 0.00 0.00 0.00 46 1013.7
20260902175203 96 72 1.0 3.0 0.00 0.00 0.00 46 1013.8
20260902174704 97 206 3.0 7.0 0.00 0.00 0.00 45 1013.9
20260902174203 97 173 3.0 9.0 0.00 0.00 0.00 44 1014.0
20260902173704 98 183 3.0 8.0 0.00 0.00 0.00 44 1014.0
20260902172704 96 184 3.0 9.0 0.00 0.00 0.00 47 1014.3
20260902172203 96 119 2.0 6.0 0.00 0.00 0.00 47 1014.4
20260902171704 96 150 2.0 7.0 0.00 0.00 0.00 47 1014.3
20260902170703 95 205 2.0 5.0 0.00 0.00 0.00 48 1014.5
20260902170203 95 107 1.0 3.0 0.00 0.00 0.00 49 1014.6
20260902165704 95 170 2.0 5.0 0.00 0.00 0.00 49 1014.6
20260902165203 95 358 1.0 6.0 0.00 0.00 0.00 50 1014.6
20260902164704 94 173 2.0 5.0 0.00 0.00 0.00 50 1014.8
20260902164203 93 271 1.0 7.0 0.00 0.00 0.00 52 1014.8
20260902163204 93 37 1.0 10.0 0.00 0.00 0.00 52 1014.9
20260902162703 93 180 2.0 8.0 0.00 0.00 0.00 52 1015.0
20260902162204 93 236 2.0 3.0 0.00 0.00 0.00 53 1015.0
20260902161703 93 118 1.0 6.0 0.00 0.00 0.00 53 1015.0
20260902160703 92 145 3.0 7.0 0.00 0.00 0.00 55 1015.1
20260902160203 91 193 5.0 12.0 0.00 0.00 0.00 55 1015.2
20260902155704 91 235 2.0 6.0 0.00 0.00 0.00 56 1015.2
20260902155204 90 269 3.0 7.0 0.00 0.00 0.00 56 1015.3
20260902154704 91 215 3.0 9.0 0.00 0.00 0.00 57 1015.2
20260902154204 91 49 2.0 7.0 0.00 0.00 0.00 59 1015.3
20260902153703 90 155 1.0 3.0 0.00 0.00 0.00 60 1015.2
20260902153204 90 75 2.0 7.0 0.00 0.00 0.00 60 1015.2
20260902152704 90 212 1.0 3.0 0.00 0.00 0.00 61 1015.2
20260902152203 90 141 1.0 3.0 0.00 0.00 0.00 62 1015.2
20260902151704 89 109 2.0 3.0 0.00 0.00 0.00 62 1015.1
20260902151203 89 200 2.0 7.0 0.00 0.00 0.00 61 1015.1
20260902150704 89 161 3.0 8.0 0.00 0.00 0.00 60 1015.1
20260902150204 88 73 0.0 5.0 0.00 0.00 0.00 63 1015.1
20260902145703 88 172 1.0 7.0 0.00 0.00 0.00 63 1015.0
20260902145204 87 202 2.0 5.0 0.00 0.00 0.00 64 1015.0
20260902144704 87 174 2.0 6.0 0.00 0.00 0.00 65 1015.2
20260902144203 86 181 2.0 6.0 0.00 0.00 0.00 66 1015.3
20260902143703 85 103 0.0 3.0 0.00 0.00 0.00 68 1015.2
20260902142203 86 166 1.0 3.0 0.00 0.00 0.00 67 1015.2
20260902141704 86 185 1.0 6.0 0.00 0.00 0.00 66 1015.1
20260902141203 87 112 1.0 2.0 0.00 0.00 0.00 66 1015.3
20260902140704 87 37 0.0 0.0 0.00 0.00 0.00 66 1015.2
20260902140203 87 46 0.0 0.0 0.00 0.00 0.00 66 1015.3
20260902135704 86 91 0.0 0.0 0.00 0.00 0.00 67 1015.4
20260902134203 85 91 0.0 0.0 0.00 0.00 0.00 70 1015.4
20260902133703 84 91 0.0 0.0 0.00 0.00 0.00 71 1015.4
20260902133204 83 91 0.0 0.0 0.00 0.00 0.00 72 1015.4
20260902131704 79 91 0.0 0.0 0.00 0.00 0.00 78 1015.5
20260902130703 78 98 0.0 0.0 0.00 0.00 0.00 80 1015.5
20260902130204 77 101 0.0 0.0 0.00 0.00 0.00 82 1015.5
20260902125203 74 102 0.0 0.0 0.00 0.00 0.00 84 1015.5
20260902124704 74 110 0.0 0.0 0.00 0.00 0.00 84 1015.4
20260902124204 74 110 0.0 0.0 0.00 0.00 0.00 84 1015.4
20260902123703 74 118 0.0 0.0 0.00 0.00 0.00 85 1015.4
20260902123203 74 118 0.0 0.0 0.00 0.00 0.00 85 1015.3
20260902122703 73 118 0.0 0.0 0.00 0.00 0.00 86 1015.3
20260902122203 73 118 0.0 0.0 0.00 0.00 0.00 86 1015.3
20260902121704 73 118 0.0 0.0 0.00 0.00 0.00 86 1015.3
20260902121204 72 118 0.0 0.0 0.00 0.00 0.00 86 1015.2
20260902120704 72 118 0.0 0.0 0.00 0.00 0.00 86 1015.1
20260902120203 73 119 0.0 0.0 0.00 0.00 0.00 86 1015.0
20260902115704 73 118 0.0 0.0 0.00 0.00 0.00 85 1014.9
20260902115204 73 118 0.0 0.0 0.00 0.00 0.00 85 1014.8
20260902114704 73 118 0.0 0.0 0.00 0.00 0.00 85 1014.9
20260902114204 73 118 0.0 0.0 0.00 0.00 0.00 85 1014.8
20260902113704 73 119 0.0 0.0 0.00 0.00 0.00 85 1014.8
20260902113204 73 118 0.0 0.0 0.00 0.00 0.00 85 1014.7
20260902112704 73 118 0.0 0.0 0.00 0.00 0.00 85 1014.7
20260902111704 73 118 0.0 0.0 0.00 0.00 0.00 85 1014.6
20260902111204 73 118 0.0 0.0 0.00 0.00 0.00 85 1014.6
20260902110704 73 119 0.0 0.0 0.00 0.00 0.00 84 1014.6
20260902110203 73 118 0.0 0.0 0.00 0.00 0.00 84 1014.5
20260902105203 73 118 0.0 0.0 0.00 0.00 0.00 84 1014.4
20260902104204 74 118 0.0 0.0 0.00 0.00 0.00 83 1014.3
20260902103204 74 118 0.0 0.0 0.00 0.00 0.00 83 1014.2
20260902102704 74 118 0.0 0.0 0.00 0.00 0.00 82 1014.2
20260902102203 74 122 0.0 0.0 0.00 0.00 0.00 82 1014.2
20260902101704 74 124 0.0 0.0 0.00 0.00 0.00 82 1014.2
20260902101204 74 124 0.0 0.0 0.00 0.00 0.00 82 1014.2
20260902100704 75 124 0.0 0.0 0.00 0.00 0.00 81 1014.3
20260902100204 75 124 0.0 0.0 0.00 0.00 0.00 81 1014.3
20260902095204 75 121 0.0 0.0 0.00 0.00 0.00 81 1014.2
20260902094204 75 121 0.0 0.0 0.00 0.00 0.00 81 1014.2
20260902093703 75 121 0.0 0.0 0.00 0.00 0.00 81 1014.1
20260902093203 75 121 0.0 0.0 0.00 0.00 0.00 80 1014.1
20260902092703 75 121 0.0 0.0 0.00 0.00 0.00 80 1014.1
20260902092203 75 121 0.0 0.0 0.00 0.00 0.00 80 1014.1
20260902090704 76 121 0.0 0.0 0.00 0.00 0.00 79 1014.1
20260902085703 76 121 0.0 0.0 0.00 0.00 0.00 79 1014.0
20260902084703 76 126 0.0 0.0 0.00 0.00 0.00 79 1014.1
20260902084203 76 126 0.0 0.0 0.00 0.00 0.00 79 1014.1
20260902083703 76 126 0.0 0.0 0.00 0.00 0.00 79 1014.1
20260902083204 76 126 0.0 0.0 0.00 0.00 0.00 79 1014.1
20260902082704 76 126 0.0 0.0 0.00 0.00 0.00 78 1014.1
20260902082203 76 126 0.0 0.0 0.00 0.00 0.00 78 1014.1
20260902081704 76 126 0.0 0.0 0.00 0.00 0.00 78 1014.1
20260902080704 76 126 0.0 0.0 0.00 0.00 0.00 78 1014.2
20260902080204 76 126 0.0 0.0 0.00 0.00 0.00 77 1014.1
20260902075703 76 126 0.0 0.0 0.00 0.00 0.00 77 1014.1
20260902074703 77 126 0.0 0.0 0.00 0.00 0.00 76 1014.1
20260902073703 77 126 0.0 0.0 0.00 0.00 0.00 76 1014.0
20260902072704 77 126 0.0 0.0 0.00 0.00 0.00 76 1014.1
20260902072203 77 126 0.0 0.0 0.00 0.00 0.00 76 1014.0
20260902071203 77 126 0.0 1.0 0.00 0.00 0.00 76 1014.1
20260902070204 78 126 0.0 0.0 0.00 0.00 0.00 75 1014.0
20260902065703 78 126 0.0 0.0 0.00 0.00 0.00 75 1014.0
20260902065204 78 137 0.0 0.0 0.00 0.00 0.00 75 1014.0
20260902064703 78 140 0.0 0.0 0.00 0.00 0.00 75 1014.1
20260902064204 78 143 0.0 1.0 0.00 0.00 0.00 75 1014.1
20260902063204 78 135 0.0 0.0 0.00 0.00 0.00 75 1013.9
20260902062704 78 135 0.0 0.0 0.00 0.00 0.00 75 1014.0
20260902062204 78 135 0.0 0.0 0.00 0.00 0.00 75 1014.0
20260902061704 78 135 0.0 0.0 0.00 0.00 0.00 74 1014.0
20260902061203 78 135 0.0 0.0 0.00 0.00 0.00 74 1014.0
20260902060703 78 135 0.0 0.0 0.00 0.00 0.00 73 1014.0
20260902055704 78 135 0.0 0.0 0.00 0.00 0.00 73 1014.0
20260902054704 79 135 0.0 0.0 0.00 0.00 0.00 72 1014.1
20260902053704 80 135 0.0 0.0 0.00 0.00 0.00 71 1013.9
20260902053203 80 135 0.0 0.0 0.00 0.00 0.00 70 1013.9
20260902052703 80 135 0.0 0.0 0.00 0.00 0.00 70 1013.9
20260902052204 81 135 0.0 0.0 0.00 0.00 0.00 69 1013.9
20260902051703 81 135 0.0 0.0 0.00 0.00 0.00 69 1013.9
20260902051204 81 135 0.0 0.0 0.00 0.00 0.00 69 1013.8
20260902050204 81 124 0.0 0.0 0.00 0.00 0.00 69 1013.8
20260902045703 81 126 0.0 0.0 0.00 0.00 0.00 69 1013.8
20260902045204 81 127 0.0 0.0 0.00 0.00 0.00 68 1013.8
20260902044703 81 131 0.0 1.0 0.00 0.00 0.00 68 1013.8
20260902044204 81 186 0.0 0.0 0.00 0.00 0.00 68 1013.8
20260902043703 81 186 0.0 0.0 0.00 0.00 0.00 68 1013.8
20260902043204 81 186 0.0 0.0 0.00 0.00 0.00 68 1013.8
20260902042703 81 186 0.0 0.0 0.00 0.00 0.00 67 1013.7
20260902042204 81 187 0.0 1.0 0.00 0.00 0.00 67 1013.5
20260902041704 81 188 0.0 0.0 0.00 0.00 0.00 67 1013.5
20260902041204 81 165 0.0 0.0 0.00 0.00 0.00 66 1013.5
20260902040703 82 165 0.0 0.0 0.00 0.00 0.00 65 1013.5
20260902035704 82 140 0.0 1.0 0.00 0.00 0.00 64 1013.6
20260902035203 82 169 0.0 2.0 0.00 0.00 0.00 64 1013.6
20260902034704 82 142 0.0 1.0 0.00 0.00 0.00 64 1013.6
20260902034203 82 184 0.0 0.0 0.00 0.00 0.00 64 1013.6
20260902033203 82 167 0.0 0.0 0.00 0.00 0.00 63 1013.6
20260902032704 83 194 0.0 1.0 0.00 0.00 0.00 63 1013.5
20260902032203 83 195 0.0 0.0 0.00 0.00 0.00 62 1013.5
20260902031704 83 195 0.0 1.0 0.00 0.00 0.00 62 1013.5
20260902031203 83 195 0.0 1.0 0.00 0.00 0.00 62 1013.4
20260902030204 83 195 0.0 0.0 0.00 0.00 0.00 61 1013.3
20260902025703 83 195 0.0 0.0 0.00 0.00 0.00 60 1013.2
20260902025204 84 194 0.0 1.0 0.00 0.00 0.00 60 1013.0
20260902024703 84 194 0.0 0.0 0.00 0.00 0.00 60 1012.9
20260902024204 84 195 0.0 1.0 0.00 0.00 0.00 60 1012.9
20260902023704 84 186 0.0 1.0 0.00 0.00 0.00 60 1012.8
20260902022704 84 130 0.0 0.0 0.00 0.00 0.00 60 1012.7
20260902022203 84 130 0.0 0.0 0.00 0.00 0.00 59 1012.6
20260902021704 84 130 0.0 0.0 0.00 0.00 0.00 59 1012.6
20260902021204 85 130 0.0 0.0 0.00 0.00 0.00 59 1012.4
20260902020704 85 130 0.0 0.0 0.00 0.00 0.00 58 1012.3
20260902020203 85 130 0.0 0.0 0.00 0.00 0.00 58 1012.4
20260902015704 85 130 0.0 0.0 0.00 0.00 0.00 58 1012.3
20260902015203 85 130 0.0 0.0 0.00 0.00 0.00 57 1012.3
20260902014704 85 130 0.0 0.0 0.00 0.00 0.00 57 1012.3
20260902014203 86 130 0.0 0.0 0.00 0.00 0.00 57 1012.3
20260902013704 86 130 0.0 0.0 0.00 0.00 0.00 57 1012.2
20260902013204 86 130 0.0 0.0 0.00 0.00 0.00 56 1012.1
20260902012704 86 130 0.0 0.0 0.00 0.00 0.00 56 1012.0
20260902012203 87 130 0.0 0.0 0.00 0.00 0.00 55 1012.0
20260902011704 87 130 0.0 0.0 0.00 0.00 0.00 56 1012.0
20260902011203 88 130 0.0 0.0 0.00 0.00 0.00 55 1012.0
20260902010704 88 130 0.0 0.0 0.00 0.00 0.00 54 1012.0
20260902010203 89 130 0.0 0.0 0.00 0.00 0.00 53 1012.0
20260902005704 89 130 0.0 0.0 0.00 0.00 0.00 52 1011.9
20260902005203 90 130 0.0 0.0 0.00 0.00 0.00 51 1012.0
20260902004704 90 196 0.0 1.0 0.00 0.00 0.00 51 1011.9
20260902004203 91 194 0.0 1.0 0.00 0.00 0.00 50 1011.9
20260902003704 91 188 0.0 0.0 0.00 0.00 0.00 49 1011.9
20260902003203 92 188 0.0 0.0 0.00 0.00 0.00 49 1012.0
20260902002704 93 188 0.0 0.0 0.00 0.00 0.00 48 1012.1
20260902002203 93 188 0.0 1.0 0.00 0.00 0.00 47 1012.1
20260902001204 94 229 1.0 2.0 0.00 0.00 0.00 46 1012.1
20260902000204 95 187 1.0 6.0 0.00 0.00 0.00 44 1012.2
20260901235703 96 115 0.0 2.0 0.00 0.00 0.00 43 1012.1
20260901235203 97 191 1.0 8.0 0.00 0.00 0.00 43 1012.2
20260901234704 97 121 0.0 3.0 0.00 0.00 0.00 42 1012.2
20260901234203 97 194 1.0 3.0 0.00 0.00 0.00 42 1012.2
20260901233704 97 131 1.0 6.0 0.00 0.00 0.00 42 1012.3
20260901232203 98 185 1.0 6.0 0.00 0.00 0.00 40 1012.3
20260901231704 99 179 1.0 6.0 0.00 0.00 0.00 40 1012.3
20260901231203 99 174 0.0 1.0 0.00 0.00 0.00 40 1012.3
20260901230703 99 174 1.0 3.0 0.00 0.00 0.00 40 1012.3
20260901230203 99 185 0.0 3.0 0.00 0.00 0.00 40 1012.3
20260901225704 98 249 1.0 9.0 0.00 0.00 0.00 40 1012.3
20260901225204 98 183 1.0 6.0 0.00 0.00 0.00 40 1012.3
20260901224703 99 148 1.0 3.0 0.00 0.00 0.00 40 1012.3
20260901224203 99 109 1.0 3.0 0.00 0.00 0.00 41 1012.2
20260901223703 99 177 1.0 5.0 0.00 0.00 0.00 40 1012.2
20260901223203 98 118 0.0 3.0 0.00 0.00 0.00 41 1012.1
20260901222704 98 60 2.0 3.0 0.00 0.00 0.00 41 1012.2
20260901221203 98 170 1.0 3.0 0.00 0.00 0.00 42 1012.2
20260901220204 98 123 1.0 5.0 0.00 0.00 0.00 42 1012.1
20260901215703 98 185 2.0 8.0 0.00 0.00 0.00 42 1012.2
20260901215204 98 177 4.0 10.0 0.00 0.00 0.00 45 1012.2
20260901214704 98 97 1.0 7.0 0.00 0.00 0.00 42 1012.1
20260901214204 98 59 3.0 7.0 0.00 0.00 0.00 42 1012.2
20260901213703 97 70 1.0 3.0 0.00 0.00 0.00 42 1012.2
20260901212704 96 153 1.0 6.0 0.00 0.00 0.00 42 1012.3
20260901210703 98 154 1.0 3.0 0.00 0.00 0.00 40 1012.6
20260901210204 98 72 1.0 3.0 0.00 0.00 0.00 41 1012.7
20260901205703 99 112 0.0 2.0 0.00 0.00 0.00 40 1012.6
20260901205203 99 115 0.0 1.0 0.00 0.00 0.00 40 1012.7
20260901204704 99 221 1.0 3.0 0.00 0.00 0.00 40 1012.7
20260901204204 99 220 1.0 3.0 0.00 0.00 0.00 40 1012.8
20260901203703 99 182 1.0 5.0 0.00 0.00 0.00 40 1012.8
20260901203204 99 142 1.0 3.0 0.00 0.00 0.00 40 1012.8
20260901202703 99 212 4.0 8.0 0.00 0.00 0.00 39 1012.8
20260901202204 100 189 2.0 5.0 0.00 0.00 0.00 40 1012.9
20260901201704 100 178 1.0 3.0 0.00 0.00 0.00 40 1012.9
20260901201204 100 54 1.0 2.0 0.00 0.00 0.00 40 1013.0
20260901200704 99 7 0.0 3.0 0.00 0.00 0.00 40 1013.0
20260901200203 99 214 0.0 5.0 0.00 0.00 0.00 41 1013.2
20260901195703 99 202 3.0 8.0 0.00 0.00 0.00 40 1013.1